Overview Statistics Trail Chart Weather Telemetry Raw packets
 

This is the latest recevied weather packets stored in our database for station/object W8RSN-13. If no packets are shown the sender has not sent any weather packets the latest 10 day(s).

<< 91 92 93 94 95 96 97 >>
Time Temp. Humidity Pressure Rain* Wind** Luminosity Snow
1788009265 23.33° C 66% 1014.6 hPa - - - -
1788008964 23.33° C 62% 1014.6 hPa - - - -
1788008663 23.89° C 60% 1014.5 hPa - - - -
1788008362 23.89° C 59% 1014.4 hPa - - - -
1788008061 23.89° C 58% 1014.5 hPa - - - -
1788007761 23.89° C 58% 1014.4 hPa - - - -
1788007459 23.89° C 60% 1014.3 hPa - - - -
1788007159 23.33° C 62% 1014.6 hPa - - - -
1788006858 23.33° C 63% 1014.5 hPa - - - -
1788006557 23.33° C 64% 1014.5 hPa - - - -
1788006255 23.89° C 63% 1014.5 hPa - - - -
1788005975 23.89° C 61% 1014.3 hPa - - - -
1788005674 23.89° C 58% 1014.4 hPa - - - -
1788005373 23.89° C 58% 1014.2 hPa - - - -
1788005072 23.89° C 58% 1014.1 hPa - - - -
1788004772 23.89° C 59% 1014.2 hPa - - - -
1788004471 24.44° C 57% 1014.3 hPa - - - -
1788004170 23.89° C 57% 1014.4 hPa - - - -
1788003869 23.89° C 57% 1014.3 hPa - - - -
1788003568 23.89° C 58% 1014.2 hPa - - - -
1788003267 23.89° C 59% 1014.3 hPa - - - -
1788002966 24.44° C 60% 1014.2 hPa - - - -
1788002665 24.44° C 58% 1014.3 hPa - - - -
1788002364 24.44° C 58% 1014.4 hPa - - - -
1788002063 24.44° C 55% 1014.4 hPa - - - -

* Rain since midnight (hover to see other rain measurements)
** Current wind speed in m/s (hover to see current wind gust speed)